Flag for Germany Weather past 2 weeks in Langenhagen, Lower Saxony, Germany

Now
63 °F

Scattered clouds.


Feels Like: 63 °F
Forecast: 51 / 64 °F
Wind: 10 mph from Southwest

Location: Hannover

Current Time: Aug 21, 2014 at 4:14:20 PM

Latest Report: Aug 21, 2014 at 3:50 PM


Visibility: N/A

Pressure: 29.98 "Hg

Humidity: 52%

Dew point: 45 °F

Location of LangenhagenLocation

Historic Weather in Langenhagen — Graph

°F

Langenhagen temperature yesterday

Maximum temperature yesterday: 63 °F (at 12:50 PM)
Minimum temperature yesterday: 50 °F (at 12:50 AM)
Average temperature yesterday: 55 °F

Past Weeks' High & Low Weather Summary

 TemperatureHumidityPressure
High79 °F (Aug 8, 4:50 PM)100% (Aug 7, 6:50 AM)30.01 "Hg (Aug 7, 6:50 AM)
Low50 °F (Aug 20, 12:50 AM)38% (Aug 11, 4:50 PM)29.59 "Hg (Aug 10, 8:50 PM)
Average62 °F75%29.84 "Hg
* Reported Aug 6 3:20 PM — Aug 21 3:20 PM, Langenhagen, Weather by CustomWeather, © 2014

Note: Actual official high and low records may vary slightly from our data, if they occured in-between our weather recording intervals... More about our weather records

Advertising

Langenhagen weather history for previous 24 hours

 ConditionsComfort  
Time TempWeatherWind HumidityBarometerVisibility
3:20 PM
Aug 21
64 °FScattered clouds.14 mph52%29.98 "HgN/A
2:50 PM63 °FScattered clouds.10 mph52%29.98 "HgN/A
2:20 PM63 °FScattered clouds.10 mph52%29.98 "HgN/A
1:50 PM63 °FScattered clouds.13 mph56%30.01 "HgN/A
1:20 PM63 °FScattered clouds.10 mph56%30.01 "HgN/A
12:50 PM61 °FScattered clouds.10 mph59%30.01 "HgN/A
12:20 PM59 °FScattered clouds.10 mph63%30.01 "HgN/A
11:50 AM59 °FScattered clouds.9 mph68%30.01 "HgN/A
11:20 AM59 °FScattered clouds.8 mph68%30.01 "HgN/A
10:50 AM57 °FPartly sunny.8 mph72%30.01 "HgN/A
10:20 AM57 °FScattered clouds.8 mph72%30.01 "HgN/A
9:50 AM55 °FPassing clouds.8 mph82%30.01 "HgN/A
9:20 AM55 °FPassing clouds.7 mph82%30.01 "Hg6 mi
8:50 AM54 °FPassing clouds.8 mph88%30.01 "Hg6 mi
8:20 AM52 °FPassing clouds.6 mph88%30.01 "Hg5 mi
7:50 AM52 °FPassing clouds.5 mph88%30.01 "Hg4 mi
7:20 AM50 °FPassing clouds.5 mph94%29.98 "Hg4 mi
6:50 AM50 °FClear.7 mph94%29.98 "Hg5 mi
6:20 AM50 °FClear.7 mph94%29.98 "Hg5 mi
5:50 AM50 °FClear.5 mph88%29.98 "Hg5 mi
5:20 AM50 °FPassing clouds.6 mph94%29.98 "HgN/A
4:50 AM50 °FPassing clouds.5 mph94%29.98 "HgN/A
4:20 AM52 °FPassing clouds.5 mph88%29.98 "HgN/A
3:50 AM50 °FPassing clouds.5 mph88%29.98 "HgN/A
3:20 AM50 °FPassing clouds.3 mph94%29.98 "HgN/A
2:50 AM52 °FPassing clouds.3 mph88%29.98 "HgN/A
2:20 AM52 °FPassing clouds.6 mph88%29.98 "HgN/A
1:50 AM52 °FPassing clouds.5 mph88%29.98 "HgN/A
1:20 AM52 °FPassing clouds.6 mph88%29.98 "HgN/A
12:50 AM52 °FPassing clouds.6 mph88%29.98 "HgN/A
12:20 AM52 °FPassing clouds.6 mph88%29.98 "HgN/A
11:50 PM
Aug 20
52 °FClear.3 mph88%29.98 "Hg10 mi
11:20 PM50 °FClear.1 mph88%29.98 "Hg10 mi
10:50 PM52 °FClear.5 mph88%29.98 "Hg10 mi
10:20 PM52 °FClear.5 mph88%29.98 "Hg10 mi
9:50 PM54 °FClear.6 mph82%29.98 "Hg10 mi
9:20 PM54 °FScattered clouds.7 mph82%29.98 "HgN/A
8:50 PM55 °FPartly sunny.6 mph77%29.98 "HgN/A
8:20 PM57 °FPartly sunny.6 mph77%29.95 "HgN/A
7:50 PM57 °FPartly sunny.6 mph77%29.95 "HgN/A
7:20 PM59 °FScattered clouds.6 mph68%29.95 "HgN/A
6:50 PM59 °FScattered clouds.10 mph68%29.98 "HgN/A
6:20 PM59 °FPartly sunny.8 mph68%29.98 "HgN/A
5:50 PM57 °FPartly sunny.9 mph72%29.98 "HgN/A
5:20 PM57 °FSprinkles. Partly sunny.9 mph72%29.98 "HgN/A
4:50 PM59 °FScattered showers. Scattered clouds.20 mph63%29.98 "HgN/A
4:20 PM61 °FPassing clouds.25 mph55%29.95 "HgN/A
Weather by CustomWeather, © 2014

See weather overviewHow to use our weather pages